Voltar ao catálogo

YAOGAN-34 03

AtivoMilitarLEO
NORAD 54249·PAYLOAD·🇨🇳 China

Lançado Nov 15, 2022 de Jiuquan Satellite Launch Center

Loading…

Próximas Passagens (próximas 24 horas)

TLE

AtualizadoSource: Space-Track

Época: Sep 14, 2026, 13:53 UTC

1 54249U 22154A   26257.57899464 -.00000095  00000-0 -81383-5 0  9996
2 54249  63.4071  32.5935 0048895 351.6088   8.4116 13.45517011188284

Acompanhe YAOGAN-34 03 em tempo real com AllMySat

Download on the App Store